Weather History for KMRC - May, 2013

Change the Weather History Date:

Friday, May 10, 2013

  Actual Average (KBNA) Record (KBNA)
Temperature  
Mean Temperature 70 °F 66 °F  
Max Temperature 73 °F 77 °F 92 °F (2015)
Min Temperature 66 °F 55 °F 37 °F (1966)
Degree Days  
Heating Degree Days 0    
Month to date heating degree days  
Since 1 July heating degree days  
Cooling Degree Days 4    
Month to date cooling degree days  
Year to date cooling degree days  
Growing Degree Days 20 (Base 50)    
Moisture  
Dew Point 69 °F    
Average Humidity 100    
Maximum Humidity 100    
Minimum Humidity 94    
Precipitation  
Precipitation 0.00 in 0.19 in 1.64 in (1933)
Month to date precipitation 1.88  
Year to date precipitation 17.68  
Snow  
Snow 0.00 in 0.00 in - ()
Month to date snowfall 0.0  
Since 1 July snowfall 6.3  
Snow Depth -    
Sea Level Pressure  
Sea Level Pressure 29.94 in    
Wind  
Wind Speed 8 mph (SSW)    
Max Wind Speed 21 mph    
Max Gust Speed -    
Visibility 9 miles    
Events      
T = Trace of Precipitation, MM = Missing Value Source: NWS Daily Summary

Daily Weather History Graph

Daily Weather History Graph

Search for Another Location

Airport or City:

Trip Planner

Search our weather history database for the weather conditions in past years. The results will help you decide how hot, cold, wet, or windy it might be!

Date:

Astronomy

May. 10, 2013 Rise Set
Actual Time 5:47 AM CDT 7:42 PM CDT
Civil Twilight 5:19 AM CDT 8:10 PM CDT
Nautical Twilight 4:46 AM CDT 8:44 PM CDT
Astronomical Twilight 4:09 AM CDT 9:21 PM CDT
Moon 6:12 AM CDT (5/10) 8:31 PM CDT (5/10)
Length of Visible Light 14h 50m
Length of Day
13h 54m
New Moon, 0% of the Moon is Illuminated
May 10
New Moon
May 17
First Quarter
May 24
Full
May 31
Last Quarter
Jun 8
New

Hourly Weather History & Observations

Time (CDT) Temp. Dew Point Humidity Pressure Visibility Wind Dir Wind Speed Gust Speed Precip Events Conditions
1:15 AM 68.0 °F 68.0 °F 100% 29.99 in 10.0 mi South 4.6 mph - N/A   Partly Cloudy
1:35 AM 66.2 °F 66.2 °F 100% 29.98 in 10.0 mi South 4.6 mph - N/A   Clear
1:55 AM 66.2 °F 66.2 °F 100% 29.98 in 10.0 mi South 5.8 mph - N/A   Scattered Clouds
2:15 AM 68.0 °F 68.0 °F 100% 29.96 in 10.0 mi South 5.8 mph - N/A   Overcast
2:35 AM 68.0 °F 68.0 °F 100% 29.95 in 10.0 mi South 5.8 mph - N/A   Mostly Cloudy
2:55 AM 69.8 °F 69.8 °F 100% 29.95 in 10.0 mi South 5.8 mph - N/A   Overcast
3:15 AM 68.0 °F 68.0 °F 100% 29.94 in 10.0 mi South 5.8 mph - N/A   Overcast
3:35 AM 68.0 °F 68.0 °F 100% 29.94 in 10.0 mi South 6.9 mph - N/A   Overcast
3:55 AM 69.8 °F 69.8 °F 100% 29.94 in 10.0 mi South 4.6 mph - N/A   Overcast
4:15 AM 69.8 °F 69.8 °F 100% 29.94 in 10.0 mi South 6.9 mph - N/A   Overcast
4:35 AM 69.8 °F 69.8 °F 100% 29.94 in 10.0 mi SSW 11.5 mph - N/A   Overcast
4:55 AM 69.8 °F 69.8 °F 100% 29.94 in 10.0 mi SSW 10.4 mph - N/A   Mostly Cloudy
5:15 AM 69.8 °F 69.8 °F 100% 29.94 in 5.0 mi SSW 13.8 mph - N/A   Overcast
5:35 AM 68.0 °F 68.0 °F 100% 29.95 in 10.0 mi SW 10.4 mph - N/A   Overcast
5:55 AM 66.2 °F 66.2 °F 100% 29.96 in 9.0 mi SW 11.5 mph - N/A   Overcast
6:15 AM 66.2 °F 66.2 °F 100% 29.97 in 5.0 mi SW 13.8 mph - N/A   Overcast
6:35 AM - - N/A% 29.98 in 3.0 mi SSW 10.4 mph - N/A   Mostly Cloudy
7:15 AM - - N/A% 29.98 in 8.0 mi SSW 8.1 mph - N/A   Overcast
7:35 AM - - N/A% 29.98 in 10.0 mi South 9.2 mph - N/A   Overcast
8:15 AM - - N/A% 29.99 in 3.0 mi South 11.5 mph - N/A   Overcast
8:35 AM - - N/A% 29.99 in 5.0 mi South 8.1 mph - N/A   Mostly Cloudy
8:55 AM - - N/A% 29.99 in 3.0 mi South 9.2 mph - N/A   Overcast
9:15 AM - - N/A% 29.99 in 8.0 mi South 10.4 mph - N/A   Overcast
9:35 AM - - N/A% 29.98 in 10.0 mi South 8.1 mph - N/A   Overcast
9:55 AM - - N/A% 29.97 in 10.0 mi South 10.4 mph - N/A   Overcast
10:15 AM - - N/A% 29.97 in 10.0 mi SSW 9.2 mph - N/A   Overcast
10:35 AM - - N/A% 29.97 in 10.0 mi SSW 10.4 mph - N/A   Overcast
10:55 AM - - N/A% 29.97 in 6.0 mi South 8.1 mph - N/A   Overcast
11:15 AM - - N/A% 29.96 in 10.0 mi SSW 12.7 mph - N/A   Mostly Cloudy
11:35 AM - - N/A% 29.96 in 10.0 mi South 15.0 mph - N/A   Partly Cloudy
12:15 PM 66.2 °F 66.2 °F 100% 29.95 in 10.0 mi SSW 20.7 mph - N/A   Partly Cloudy
12:35 PM 66.2 °F 66.2 °F 100% 29.95 in 10.0 mi SSW 15.0 mph - N/A   Scattered Clouds
12:55 PM 68.0 °F 68.0 °F 100% 29.95 in 10.0 mi SSW 16.1 mph - N/A   Mostly Cloudy
1:15 PM 69.8 °F 69.8 °F 100% 29.94 in 10.0 mi SSW 12.7 mph - N/A   Mostly Cloudy
1:35 PM 69.8 °F 69.8 °F 100% 29.94 in 10.0 mi SSW 15.0 mph - N/A   Scattered Clouds
1:55 PM 71.6 °F 71.6 °F 100% 29.93 in 10.0 mi SW 17.3 mph - N/A   Partly Cloudy
2:15 PM 69.8 °F 69.8 °F 100% 29.94 in 10.0 mi SSW 13.8 mph - N/A   Mostly Cloudy
2:35 PM 69.8 °F 69.8 °F 100% 29.93 in 10.0 mi SSW 13.8 mph - N/A   Mostly Cloudy
2:55 PM 71.6 °F 71.6 °F 100% 29.93 in 10.0 mi SW 12.7 mph - N/A   Overcast
3:15 PM 71.6 °F 71.6 °F 100% 29.93 in 10.0 mi SSW 11.5 mph - N/A   Overcast
3:35 PM 71.6 °F 71.6 °F 100% 29.92 in 10.0 mi SSW 11.5 mph - N/A   Mostly Cloudy
3:55 PM 73.4 °F 71.6 °F 94% 29.91 in 10.0 mi SSW 11.5 mph - N/A   Mostly Cloudy
4:15 PM 71.6 °F 71.6 °F 100% 29.91 in 6.0 mi WSW 12.7 mph - N/A   Mostly Cloudy
4:35 PM 71.6 °F 71.6 °F 100% 29.91 in 10.0 mi WSW 8.1 mph - N/A   Mostly Cloudy
5:35 PM 71.6 °F 71.6 °F 100% 29.90 in 10.0 mi SW 5.8 mph - N/A   Mostly Cloudy
5:55 PM 69.8 °F 69.8 °F 100% 29.91 in 8.0 mi West 8.1 mph - N/A   Unknown
6:15 PM 68.0 °F 68.0 °F 100% 29.90 in 8.0 mi Calm Calm - N/A   Overcast
6:35 PM - - N/A% 29.90 in 10.0 mi Calm Calm - N/A   Overcast
6:55 PM - - N/A% 29.90 in 7.0 mi SW 3.5 mph - N/A   Overcast
7:15 PM - - N/A% 29.91 in 10.0 mi WSW 3.5 mph - N/A   Overcast
7:35 PM - - N/A% 29.92 in 10.0 mi SSW 5.8 mph - N/A   Mostly Cloudy
7:55 PM - - N/A% 29.91 in 10.0 mi South 3.5 mph - N/A   Mostly Cloudy
8:15 PM - - N/A% 29.91 in 10.0 mi South 4.6 mph - N/A   Overcast
8:35 PM - - N/A% 29.92 in 10.0 mi South 3.5 mph - N/A   Overcast
8:55 PM - - N/A% 29.92 in 10.0 mi Calm Calm - N/A   Overcast
9:15 PM - - N/A% 29.92 in 10.0 mi Calm Calm - N/A   Mostly Cloudy
9:35 PM - - N/A% 29.94 in 10.0 mi Calm Calm - N/A   Scattered Clouds
9:55 PM - - N/A% 29.94 in 10.0 mi South 4.6 mph - N/A   Mostly Cloudy
10:15 PM - - N/A% 29.94 in 10.0 mi Calm Calm - N/A   Partly Cloudy
10:35 PM - - N/A% 29.93 in 10.0 mi SSE 3.5 mph - N/A   Clear
10:55 PM - - N/A% 29.95 in 10.0 mi South 3.5 mph - N/A   Partly Cloudy
11:15 PM - - N/A% 29.95 in 10.0 mi Calm Calm - N/A   Partly Cloudy
11:35 PM - - N/A% 29.94 in 7.0 mi SSW 3.5 mph - N/A   Scattered Clouds
11:55 PM - - N/A% 29.94 in 10.0 mi SSW 4.6 mph - N/A   Scattered Clouds